Tracking 30994 objects as of 8-Jul-2025
HD Live streaming from Space Station
objects crossing your sky now

STARLINK-32907

Track STARLINK-32907 now!
10-day predictions
STARLINK-32907 is classified as:


NORAD ID: 63095
Int'l Code: 2025-037U
Perigee: 577.2 km
Apogee: 581.2 km
Inclination: 70.0 °
Period: 96.1 minutes
Semi major axis: 6950 km
RCS: Unknown
Launch date: February 23, 2025
Source: United States (US)
Launch site: AIR FORCE WESTERN TEST RANGE (AFWTR)
Your satellite tracking list
Your tracking list is empty




NASA's NSSDC Master Catalog

Two Line Element Set (TLE):
1 63095U 25037U   25188.56787632  .00000491  00000-0  48946-4 0  9997
2 63095  70.0011 252.5478 0002848 239.0631 121.0249 14.98331892 21834
Source of the keplerian elements: AFSPC